SCP
0 0 0 0 0 0 0 0 0 0 0 0 0 0 0 0 0 0 0 0 0 0 0 0 0 0 0 0 0 0 0 0 0 1 1 1 1 0 0 0 0 0 0 0
0 0 0 0 0 0 0 0 0 0 0 0 0 0 0 0 0 0 0 0 0 0 0 0 0 0 0 0 0 0 0 0 0 0 1 1 1 0 0 0 0 0 0 0
0 0 0 0 0 0 0 0 0 0 0 0 0 0 0 0 0 0 0 0 0 0 0 0 0 0 0 1 1 1 1 1 0 0 1 1 1 1 0 0 0 0 0 0
0 0 0 0 0 0 0 0 0 0 0 0 0 0 0 0 0 0 0 0 0 0 0 0 0 0 0 1 1 1 1 1 1 1 1 1 1 1 1 0 0 0 0 0
0 0 0 0 0 0 0 0 0 0 0 0 0 0 0 0 0 0 0 0 0 0 0 0 0 0 0 1 1 1 1 1 1 1 1 1 1 1 1 0 0 0 0 0
0 0 0 0 0 0 0 0 0 0 0 0 0 0 0 0 0 0 0 0 0 0 0 0 0 0 1 1 1 1 1 1 1 1 1 1 1 1 0 0 0 0 0 0
0 0 0 0 0 0 0 0 0 0 0 0 0 0 0 0 0 0 0 0 0 0 0 0 0 0 1 1 1 1 1 1 1 1 1 1 1 1 0 0 0 0 0 0
0 0 0 0 0 0 0 0 0 0 0 0 0 0 0 0 0 0 0 0 0 0 1 1 1 0 1 1 1 1 1 2 1 1 1 1 1 0 0 0 0 0 0 0
0 0 0 0 0 0 0 0 0 0 0 0 0 0 0 0 0 0 0 0 0 0 0 0 1 1 1 1 1 2 2 2 1 1 0 1 1 1 1 0 0 0 0 0
0 0 0 0 0 0 0 0 0 0 0 0 0 0 0 0 0 0 0 0 0 0 0 0 0 1 1 1 1 2 2 1 1 0 0 1 1 1 1 1 0 1 1 0
0 0 0 0 0 0 0 0 0 0 0 0 0 0 0 0 0 0 0 0 0 0 0 0 0 1 1 1 1 2 2 1 1 0 0 1 1 1 1 1 1 1 1 0
0 0 0 0 0 0 0 0 0 0 0 0 0 0 0 0 0 0 0 0 0 0 0 0 0 1 1 1 1 1 1 1 1 1 1 1 1 1 1 0 1 1 1 0
0 0 0 0 0 0 0 0 0 0 0 0 0 0 0 0 0 0 0 0 0 0 0 0 0 0 0 0 1 1 1 1 1 1 1 1 1 1 1 1 1 1 1 1
0 0 0 0 0 0 0 0 0 0 0 0 0 0 0 0 0 0 0 0 0 0 0 0 0 0 0 0 0 0 1 1 1 1 1 1 1 2 2 1 2 1 1 1
0 0 0 0 0 0 0 0 0 0 0 0 0 0 0 0 0 0 0 0 0 0 0 0 0 0 0 0 0 0 0 0 0 1 1 1 1 2 2 2 2 2 2 1
0 0 0 0 0 0 0 0 0 0 0 0 0 0 0 0 0 0 0 0 0 1 1 0 0 0 0 0 0 0 0 0 0 0 0 1 1 1 1 1 1 2 1 1
0 0 0 0 0 0 0 0 0 0 0 0 0 0 0 0 0 0 0 0 1 1 1 1 0 0 0 0 0 0 0 0 0 0 0 0 1 1 1 1 1 1 1 1
0 0 0 0 0 0 0 0 0 0 0 0 0 0 0 0 0 0 0 0 0 0 0 0 0 0 0 0 0 0 0 0 0 0 0 0 0 1 1 1 1 1 1 1
0 0 0 0 0 0 0 0 0 0 0 0 0 0 0 0 0 0 0 0 0 0 0 0 0 0 0 0 0 1 1 1 1 1 0 0 1 1 0 0 0 0 0 0
0 0 0 0 0 0 0 0 0 0 0 0 0 0 0 0 0 0 0 0 0 0 0 0 0 0 0 0 1 1 1 1 1 1 1 1 1 1 1 0 0 0 0 0
0 0 0 0 0 0 0 0 0 0 0 0 0 0 0 0 0 0 0 0 0 0 0 0 0 0 0 0 0 1 1 1 1 1 1 1 1 1 1 1 0 0 0 0
0 0 0 0 0 0 0 0 0 0 0 0 0 0 0 0 0 0 0 0 0 0 0 0 0 0 0 0 0 0 0 0 0 0 1 0 0 0 0 1 0 0 0 0
0 0 0 0 0 0 0 0 0 0 0 0 0 0 0 0 0 0 0 0 0 0 0 0 0 0 0 0 0 0 0 0 0 0 0 0 0 0 0 0 0 0 0 0
0 0 0 0 0 0 0 0 0 0 0 0 0 0 0 0 0 0 0 0 0 0 0 0 0 0 0 0 0 0 0 0 0 0 0 0 0 0 0 0 0 0 0 0
0 0 0 0 0 0 0 0 0 0 0 0 0 0 0 0 0 0 0 0 0 0 0 0 0 0 0 0 0 0 0 0 0 0 0 0 0 0 0 0 0 0 0 0
0 0 0 0 0 0 0 0 0 0 0 0 0 0 0 0 0 0 0 0 0 0 0 0 0 0 0 0 0 0 0 0 0 0 0 0 0 0 0 0 0 0 0 0
Wind_Speed
4 5 5 4 3 1 2 3 3 1 2 3 4 4 3 3 5 5 5 5 5 5 4 3 3 2 2 2 1 1 1 2 1 1 0 0 0 1 1 1 2 2 2 2
6 5 3 2 3 4 4 5 3 2 2 3 3 4 4 3 5 5 6 6 6 5 5 4 4 3 2 2 1 1 1 2 1 1 0 0 1 1 1 1 1 1 1 1
6 2 4 5 6 6 6 6 4 2 2 4 5 5 5 3 4 4 5 5 5 6 6 6 5 4 3 3 2 1 1 2 2 1 1 0 0 0 0 0 0 1 1 1
4 3 5 7 6 7 5 3 5 5 6 3 5 5 4 4 4 4 4 5 6 6 6 6 6 5 4 4 3 3 2 2 2 2 1 1 1 1 1 1 0 1 1 1
4 5 6 6 5 6 2 2 5 6 7 6 6 7 3 5 4 3 3 4 5 6 6 7 6 6 5 4 4 3 3 3 2 2 2 2 1 1 0 0 1 1 0 1
3 3 4 3 2 4 4 5 4 5 6 8 4 7 3 3 3 2 2 3 4 5 6 6 6 5 5 4 4 4 4 3 3 3 3 3 2 1 0 1 0 1 1 1
6 5 4 4 6 6 7 7 5 6 6 4 1 6 3 1 1 2 2 2 3 4 5 5 6 6 5 5 5 4 4 3 3 3 3 3 2 2 2 1 1 2 1 1
6 5 4 4 5 5 6 7 5 4 4 3 4 6 1 1 1 2 2 2 2 3 4 5 5 5 5 5 5 5 4 4 4 3 3 2 2 2 1 2 2 2 2 2
5 3 4 2 2 5 6 6 5 7 5 6 4 3 3 3 3 2 2 2 3 3 3 4 5 5 5 5 4 4 4 4 4 4 3 2 2 2 2 2 2 2 2 2
5 4 4 4 5 1 4 4 5 6 6 7 5 5 3 4 3 3 3 3 2 3 3 3 4 4 4 4 4 4 4 4 4 3 3 2 2 2 2 2 2 3 2 2
5 6 5 6 6 5 6 6 6 6 6 6 5 2 0 2 2 3 3 2 2 2 3 3 3 3 3 3 3 3 4 4 3 3 3 3 3 2 3 2 2 3 3 3
4 6 5 5 2 3 6 6 8 7 6 7 7 3 3 1 1 2 3 2 2 2 2 3 3 3 3 3 3 3 3 3 3 3 3 3 3 3 3 3 3 3 3 3
4 6 6 6 6 6 6 6 7 7 7 7 8 4 4 0 2 2 2 2 2 3 3 2 3 3 2 2 2 2 2 2 2 2 3 3 3 3 4 3 3 3 3 3
4 7 8 7 4 3 6 7 8 10 9 9 11 10 5 3 3 3 2 2 3 3 2 2 2 2 2 2 2 2 2 2 2 3 3 3 3 3 3 3 3 3 3 3
5 7 7 7 6 6 8 9 10 13 13 12 11 10 9 6 4 4 3 3 3 3 2 3 2 2 2 3 2 2 2 3 3 3 3 3 3 3 3 3 3 3 3 3
4 6 6 8 6 8 11 12 12 13 13 13 12 11 6 5 4 4 4 3 4 3 3 3 3 3 3 3 2 2 3 3 3 3 3 2 3 2 2 3 3 2 2 3
5 6 6 7 4 7 11 9 11 11 10 11 12 8 4 4 4 4 4 3 4 3 3 3 3 2 2 2 3 3 2 2 3 3 2 2 3 2 3 3 2 2 3 3
7 7 5 6 6 9 1 1 4 8 8 9 8 7 5 5 5 4 3 3 3 3 2 2 3 2 1 1 2 2 2 2 2 2 2 2 3 3 3 3 3 3 3 2
7 7 5 5 7 8 3 1 3 6 7 5 7 6 4 3 4 3 2 3 3 3 2 1 2 1 1 1 2 2 2 2 2 2 2 2 3 3 3 3 3 3 3 3
4 6 7 6 7 7 0 2 2 5 6 1 3 4 4 4 5 2 1 1 2 1 1 0 0 0 1 1 1 2 2 1 1 2 2 2 3 3 3 3 3 3 3 3
6 7 8 9 9 6 2 1 2 6 2 3 4 4 5 5 4 3 1 1 1 0 0 0 1 0 0 1 1 2 1 1 2 2 2 2 2 3 3 3 2 3 3 3
7 6 7 7 9 5 3 3 4 4 5 4 4 4 4 4 3 2 1 1 0 0 1 1 1 1 1 1 1 1 1 2 1 1 1 2 2 2 2 2 2 3 3 3
6 5 4 5 3 2 1 3 3 4 5 5 4 4 3 3 3 2 2 2 1 1 1 1 1 1 1 1 1 2 1 1 1 1 1 1 1 1 1 2 2 2 3 3
4 2 5 6 5 3 3 3 4 4 5 5 5 4 3 3 3 2 2 2 2 1 1 1 2 1 1 1 1 1 1 1 1 1 1 1 1 1 1 1 2 2 2 2
4 4 5 7 5 4 4 3 3 3 3 3 3 3 3 3 3 3 3 2 2 1 1 2 2 2 2 1 1 1 1 1 2 2 1 1 1 1 1 1 2 2 2 2
6 6 6 6 4 5 4 3 3 3 3 3 3 3 3 3 3 3 3 3 2 2 1 2 2 2 2 2 1 1 1 2 2 2 1 1 1 1 1 1 1 3 2 2
Wind_Direction
184 202 193 187 216 238 192 208 202 168 151 213 218 228 236 205 209 218 211 207 205 206 196 178 176 177 175 153 150 135 142 127 127 116 123 70 48 32 48 32 30 31 22 23
188 204 204 191 182 196 212 217 211 167 150 235 243 251 247 224 221 228 227 216 210 209 201 185 182 182 190 174 179 160 176 163 148 117 304 325 350 332 14 11 13 9 10 6
205 163 176 192 193 209 216 231 235 237 193 215 247 235 207 190 209 222 233 233 225 215 213 194 188 195 192 190 183 176 182 170 153 146 139 95 84 287 254 275 360 345 344 0
210 190 192 205 207 228 224 230 239 229 233 230 244 268 202 191 207 208 215 216 220 215 216 204 192 193 193 194 180 185 177 178 162 163 177 204 254 276 290 302 310 294 325 322
184 190 203 216 215 230 254 214 224 235 248 253 233 262 211 190 211 201 201 207 212 211 212 204 197 195 194 187 179 181 177 177 175 187 196 232 249 274 279 290 301 288 297 295
200 188 234 234 208 210 179 185 192 219 242 248 242 258 246 191 215 217 199 197 203 206 203 202 193 188 188 181 182 185 187 186 192 204 214 225 233 246 272 276 273 270 262 266
200 192 192 211 195 185 213 226 224 218 222 237 183 254 261 111 211 258 248 215 199 196 193 188 186 184 187 187 189 192 193 196 198 210 219 228 235 246 247 270 257 274 270 254
211 198 184 207 233 217 212 239 254 264 262 254 213 250 252 113 245 263 251 209 183 181 182 184 186 186 188 190 192 199 198 204 205 213 224 235 234 258 278 283 293 286 285 276
225 194 156 187 233 237 213 224 267 276 276 267 234 231 220 188 202 194 186 172 175 174 180 185 185 187 192 195 197 204 203 206 207 211 219 226 231 239 269 281 288 285 285 288
257 231 181 166 180 164 271 222 221 244 261 261 249 244 237 186 198 199 206 200 183 179 179 182 186 189 191 194 201 203 208 210 214 217 214 218 230 241 265 267 272 274 277 281
247 242 196 192 220 216 190 206 230 243 257 269 271 252 82 228 222 234 230 220 206 199 194 181 179 181 187 189 188 196 206 214 216 220 224 221 226 227 236 247 260 267 271 269
225 254 237 221 189 289 249 237 233 245 241 250 271 272 98 230 253 260 259 237 213 204 196 183 176 175 182 189 192 201 210 215 217 224 229 232 228 227 237 243 249 251 254 262
196 238 238 210 189 193 219 224 234 251 254 246 252 252 114 266 273 273 259 239 209 197 190 179 178 182 188 201 210 214 219 221 215 217 224 227 230 232 239 245 247 245 244 249
236 245 255 264 278 233 223 217 222 234 247 251 251 268 272 281 282 283 268 249 223 207 197 188 190 194 194 204 212 221 221 217 211 211 217 225 232 239 244 244 240 240 241 244
240 251 253 266 269 252 251 242 229 237 252 262 269 270 279 288 285 281 269 250 232 222 210 206 207 213 204 200 205 211 223 221 212 215 221 226 232 231 236 239 237 236 242 247
238 251 255 251 244 248 253 251 244 243 249 256 266 268 282 286 282 270 258 243 238 235 233 231 226 218 213 199 202 211 215 217 219 223 228 226 231 228 231 235 234 227 234 244
222 239 253 255 246 256 249 245 238 234 237 247 256 271 288 277 274 273 265 247 245 248 247 242 242 236 230 217 204 217 222 213 221 226 227 229 230 226 229 230 224 222 226 235
237 237 246 264 253 247 261 62 253 245 247 249 261 275 277 278 278 274 263 254 252 251 251 249 252 253 247 223 203 209 212 214 224 231 233 232 239 234 226 225 225 229 228 228
239 232 233 243 257 266 246 207 241 246 250 248 251 257 262 275 259 233 232 260 268 269 266 264 262 247 233 199 191 203 207 213 226 238 247 244 237 234 228 227 231 237 233 231
199 230 239 235 251 259 297 64 327 262 247 192 259 257 254 245 255 268 66 264 273 269 261 292 289 186 176 180 192 213 215 219 244 253 255 257 245 234 232 234 240 244 239 237
188 204 226 237 247 259 16 78 214 242 343 7 289 273 257 253 290 356 14 332 334 328 258 153 167 138 131 177 207 228 242 257 275 274 263 255 244 238 237 238 236 234 239 241
221 216 221 230 241 249 96 164 229 320 345 321 300 288 272 267 293 303 298 280 252 216 180 177 178 138 121 174 218 243 261 275 274 265 262 254 248 249 234 231 236 234 231 236
232 242 245 239 263 19 159 241 298 311 297 303 301 301 285 265 269 281 291 295 294 266 215 192 193 179 155 181 218 251 272 270 238 234 242 243 247 257 250 237 233 231 234 242
216 237 237 244 251 264 267 275 287 283 285 301 303 294 278 265 265 272 283 294 291 265 220 203 205 217 238 226 235 267 273 243 224 220 218 209 218 254 284 287 265 253 247 246
237 205 234 249 261 267 251 271 289 296 295 299 304 294 277 269 270 277 280 284 279 252 220 223 226 235 246 245 253 277 265 237 229 217 221 219 222 249 274 300 309 287 286 288
219 222 236 254 259 261 273 291 298 292 296 299 306 310 297 272 269 274 279 285 274 255 241 243 250 252 252 247 252 240 229 234 241 234 232 235 238 241 247 260 315 6 333 350